Regional Weather Roundup
Issued by NWS

Home | Current Version | Previous Version | Text Only | Print | Product List | Glossary Off
Versions: 1 2 3 4 5 6 7 8 9 10 11 12 13 14 15 16 17 18 19 20 21 22 23 24 25 26 27 28 29 30 31 32 33 34 35 36 37 38 39 40 41 42 43 44 45 46 47 48 49 50

000
ASUS45 KABQ 281501
RWRNM
NEW MEXICO REGIONAL WEATHER ROUNDUP
NATIONAL WEATHER SERVICE ALBUQUERQUE NM
900 AM MDT FRI APR 28 2017

NOTE: "FAIR" MEANS FEW OR NO CLOUDS BELOW 12,000 FEET AGL WITH NO
       SIGNIFICANT WEATHER OR OBSTRUCTIONS TO VISION.

      THIS PRODUCT IS RELEASED AS TWO VERSIONS.  ONE VERSION NEAR
      THE TOP OF THE HOUR CONTAINING PRELIMINARY DATA FROM ALBUQUERQUE
      AND OTHER STATIONS.  A FINAL VERSION WITH ADDITIONAL DATA IS
      ISSUED ABOUT 10 MINUTES AFTER THE HOUR.

NMZ501-503-504-510>518-281600-
NORTHWEST PLATEAU/NORTHCENTRAL MOUNTAINS

CITY           SKY/WX    TMP DP  RH WIND       PRES   REMARKS
FARMINGTON     CLOUDY    36  33  89 S7        29.76F WCI  30
LOS ALAMOS     LGT SNOW  31  31 100 N5        29.79S VSB 3/4 WCI  26
SANTA FE       LGT SNOW  35  34  96 N16G25    29.76R VSB 1   WCI  25
TAOS             N/A     32  23  69 S8        29.78F WCI  25
ANGEL FIRE     LGT SNOW  28  26  91 SE7       29.77F VSB 1   WCI  20

$$
NMZ402-403-502-505>509-281600-
WESTCENTRAL MOUNTAINS/SOUTHWEST MOUNTAINS

CITY           SKY/WX    TMP DP  RH WIND       PRES   REMARKS
GALLUP         FLURRIES  36  33  89 NE6       29.79F WCI  31
GRANTS         LGT RAIN  36  32  85 N9        29.79S WCI  29
SILVER CITY    FAIR      61  38  42 W17G23    29.79S

$$
NMZ407-409-411-412-281600-
SOUTHERN DESERTS

CITY           SKY/WX    TMP DP  RH WIND       PRES   REMARKS
DEMING         FAIR      67  37  33 SW22G30   29.75F
LAS CRUCES     FAIR      67  35  30 SW16      29.76F
HOLLOMAN AFB   PTSUNNY   69  38  31 SW25G31   29.75S
ALAMOGORDO     CLOUDY    66  37  34 S10       29.73S
T OR C         PTSUNNY   67  36  31 W14G23    29.69F

$$
NMZ519>523-281600-
CENTRAL VALLEYS/CENTRAL HIGHLANDS

CITY           SKY/WX    TMP DP  RH WIND       PRES   REMARKS
ALBUQUERQUE    CLOUDY    46  28  49 N9        29.75S
DOUBLE EAGLE   CLOUDY    45  30  57 NW16      29.76R
MORIARTY ARPT  CLOUDY    46  29  52 N12       29.75F
CLINES CORNERS NOT AVBL
BELEN          CLOUDY    47  29  49 N10       29.74S
SOCORRO        CLOUDY    48  28  45 N12       29.73R

$$
NMZ524>526-539-540-281600-
SOUTHCENTRAL MOUNTAINS

CITY           SKY/WX    TMP DP  RH WIND       PRES   REMARKS
RUIDOSO        NOT AVBL

$$
NMZ527>531-281600-
NORTHEAST HIGHLANDS/NORTHEAST PLAINS

CITY           SKY/WX    TMP DP  RH WIND       PRES   REMARKS
LAS VEGAS      PTSUNNY   43  23  45 E7        29.73F
RATON          CLOUDY    40  21  46 CALM      29.71F
CLAYTON        CLOUDY    52  33  48 SW8       29.68F

$$
NMZ532>537-281600-
EASTCENTRAL PLAINS

CITY           SKY/WX    TMP DP  RH WIND       PRES   REMARKS
SANTA ROSA     PTSUNNY   53  27  36 CALM      29.70S
TUCUMCARI      FAIR      59  34  39 CALM      29.65F
CANNON AFB     FAIR      60  28  29 NE6       29.69S
CLOVIS AIRPORT FAIR      61  30  31 E6        29.69S

$$
NMZ028-029-538-281600-
SOUTHEAST PLAINS

CITY           SKY/WX    TMP DP  RH WIND       PRES   REMARKS
ROSWELL        FAIR      62  30  29 W3        29.72S
ARTESIA        FAIR      64  32  29 CALM      29.71S
CARLSBAD       FAIR      69  34  27 VRB3      29.70R
HOBBS          SUNNY     64  30  27 E9        29.72S


$$




USA.gov is the U.S. government's official web portal to all federal, state and local government web resources and services.